Weather History for Hugo, OK

Change the Weather History Date:

Friday, February 8, 2013

  Actual Average Record
Temperature  
Mean Temperature 50 °F -  
Max Temperature 62 °F 52 °F 62 °F (2013)
Min Temperature 37 °F 30 °F 33 °F (2014)
Degree Days  
Heating Degree Days 16    
Moisture  
Dew Point 35 °F    
Average Humidity 60    
Maximum Humidity 91    
Minimum Humidity 27    
Precipitation  
Precipitation 0.00 in - - ()
Sea Level Pressure  
Sea Level Pressure 30.18 in    
Wind  
Wind Speed 9 mph (NE)    
Max Wind Speed 14 mph    
Max Gust Speed 20 mph    
Visibility 9 miles    
Events      
Averages and records for this station are not official NWS values.
T = Trace of Precipitation, MM = Missing Value Source: NWS Daily Summary

Daily Weather History Graph

Daily Weather History Graph

Search for Another Location

Airport:

Trip Planner

Search our weather history database for the weather conditions in past years. The results will help you decide how hot, cold, wet, or windy it might be!

Date:

Astronomy

Feb. 08, 2013 Rise Set
Actual Time 7:13 AM CST 5:59 PM CST
Civil Twilight 6:47 AM CST 6:25 PM CST
Nautical Twilight 6:17 AM CST 6:55 PM CST
Astronomical Twilight 5:48 AM CST 7:24 PM CST
Moon 5:40 AM CST (2/8) 4:35 PM CST (2/8)
Length of Visible Light 11h 38m
Length of Day
10h 46m
Waning Crescent, 3% of the Moon is Illuminated
Feb 8
Waning Crescent
Feb 10
New
Feb 17
First Quarter
Feb 25
Full
Mar 4
Last Quarter

Hourly Weather History & Observations

Time (CST) Temp. Windchill Dew Point Humidity Pressure Visibility Wind Dir Wind Speed Gust Speed Precip Events Conditions
12:15 AM 50.0 °F - 45.0 °F 83% 30.06 in 7.0 mi North 12.7 mph 19.6 mph N/A   Overcast
12:35 AM 50.0 °F - 44.6 °F 82% 30.07 in 10.0 mi North 9.2 mph 17.3 mph N/A   Overcast
12:55 AM 49.5 °F - 44.4 °F 83% 30.07 in 10.0 mi North 9.2 mph - N/A   Overcast
1:15 AM 49.1 °F - 44.1 °F 83% 30.08 in 10.0 mi North 11.5 mph - N/A   Overcast
1:35 AM 49.1 °F - 43.2 °F 80% 30.08 in 10.0 mi North 13.8 mph 18.4 mph N/A   Overcast
1:55 AM 47.5 °F - 42.1 °F 82% 30.09 in 10.0 mi North 12.7 mph - N/A   Mostly Cloudy
2:15 AM 46.6 °F - 41.7 °F 83% 30.10 in 10.0 mi North 10.4 mph - N/A   Clear
2:35 AM 46.0 °F 41.9 °F 41.2 °F 83% 30.10 in 10.0 mi North 8.1 mph - N/A   Clear
2:55 AM 45.5 °F 42.5 °F 41.0 °F 84% 30.11 in 10.0 mi North 5.8 mph - N/A   Clear
3:35 AM 44.1 °F 40.1 °F 40.1 °F 86% 30.12 in 10.0 mi North 6.9 mph - N/A   Clear
3:55 AM 43.7 °F 39.1 °F 39.6 °F 85% 30.12 in 10.0 mi NNW 8.1 mph - N/A   Clear
4:15 AM 43.0 °F 37.2 °F 39.2 °F 86% 30.13 in 10.0 mi NNW 10.4 mph - N/A   Clear
4:35 AM 42.6 °F 36.3 °F 38.7 °F 86% 30.13 in 10.0 mi North 11.5 mph - N/A   Clear
5:15 AM 41.7 °F 35.2 °F 37.4 °F 85% 30.15 in 10.0 mi NNW 11.5 mph - N/A   Clear
5:35 AM 41.0 °F 36.4 °F 36.7 °F 85% 30.16 in 10.0 mi NNW 6.9 mph - N/A   Clear
6:15 AM 39.2 °F 35.0 °F 35.8 °F 88% 30.17 in 7.0 mi NNW 5.8 mph - N/A   Clear
6:35 AM 39.0 °F 34.8 °F 35.6 °F 88% 30.19 in 7.0 mi NNW 5.8 mph - N/A   Clear
6:55 AM 38.3 °F 33.2 °F 35.2 °F 89% 30.20 in 7.0 mi NNW 6.9 mph - N/A   Clear
7:15 AM 37.8 °F 32.5 °F 35.2 °F 91% 30.21 in 5.0 mi NNW 6.9 mph - N/A   Clear
7:35 AM 37.8 °F 32.5 °F 35.2 °F 91% 30.22 in 5.0 mi NNW 6.9 mph - N/A   Clear
7:55 AM 38.7 °F 32.9 °F 35.6 °F 89% 30.22 in 5.0 mi North 8.1 mph - N/A   Clear
8:15 AM 39.7 °F 34.3 °F 35.8 °F 86% 30.23 in 5.0 mi North 8.1 mph - N/A   Clear
8:35 AM 40.5 °F 34.6 °F 36.3 °F 85% 30.23 in 7.0 mi NNE 9.2 mph - N/A   Clear
8:55 AM 41.4 °F 34.7 °F 36.5 °F 83% 30.23 in 7.0 mi North 11.5 mph 17.3 mph N/A   Clear
9:15 AM 42.4 °F 35.7 °F 36.3 °F 79% 30.23 in 7.0 mi North 12.7 mph 18.4 mph N/A   Clear
9:35 AM 43.9 °F 38.8 °F 36.9 °F 76% 30.24 in 7.0 mi North 9.2 mph - N/A   Clear
9:55 AM 45.7 °F 41.0 °F 37.2 °F 72% 30.25 in 10.0 mi North 9.2 mph - N/A   Clear
10:15 AM 46.9 °F - 37.0 °F 68% 30.26 in 10.0 mi North 6.9 mph - N/A   Clear
10:35 AM 48.4 °F - 36.5 °F 64% 30.26 in 10.0 mi North 8.1 mph - N/A   Clear
10:55 AM 49.8 °F - 36.1 °F 59% 30.26 in 10.0 mi North 5.8 mph - N/A   Clear
11:15 AM 51.1 °F - 36.3 °F 57% 30.26 in 10.0 mi North 6.9 mph - N/A   Clear
11:35 AM 52.7 °F - 35.8 °F 53% 30.26 in 10.0 mi North 6.9 mph - N/A   Clear
11:55 AM 53.2 °F - 35.2 °F 51% 30.25 in 10.0 mi NNE 4.6 mph - N/A   Clear
12:15 PM 54.7 °F - 35.2 °F 48% 30.23 in 10.0 mi ENE 3.5 mph - N/A   Clear
12:35 PM 56.3 °F - 34.5 °F 44% 30.22 in 10.0 mi NE 4.6 mph - N/A   Clear
12:55 PM 59.0 °F - 31.6 °F 36% 30.21 in 10.0 mi NE 5.8 mph - N/A   Clear
1:15 PM 59.2 °F - 30.6 °F 34% 30.20 in 10.0 mi NE 6.9 mph - N/A   Clear
1:35 PM 59.5 °F - 30.9 °F 34% 30.19 in 10.0 mi ESE 6.9 mph - N/A   Clear
1:55 PM 60.8 °F - 31.1 °F 33% 30.18 in 10.0 mi Calm Calm - N/A   Clear
2:15 PM 61.5 °F - 30.0 °F 30% 30.18 in 10.0 mi Calm Calm - N/A   Clear
2:35 PM 62.1 °F - 28.6 °F 28% 30.18 in 10.0 mi ESE 5.8 mph - N/A   Clear
2:55 PM 61.7 °F - 27.1 °F 27% 30.17 in 10.0 mi East 5.8 mph - N/A   Clear
3:15 PM 60.8 °F - 27.5 °F 28% 30.18 in 10.0 mi ENE 3.5 mph - N/A   Clear
3:35 PM 61.7 °F - 27.1 °F 27% 30.17 in 10.0 mi East 3.5 mph - N/A   Clear
3:55 PM 60.3 °F - 28.9 °F 31% 30.16 in 10.0 mi East 6.9 mph - N/A   Clear
4:15 PM 61.7 °F - 30.0 °F 30% 30.15 in 10.0 mi ENE 6.9 mph - N/A   Clear
4:35 PM 61.0 °F - 30.0 °F 31% 30.15 in 10.0 mi SE 8.1 mph - N/A   Clear
4:55 PM 60.8 °F - 30.6 °F 32% 30.15 in 10.0 mi SE 6.9 mph - N/A   Clear
5:15 PM 59.5 °F - 30.4 °F 33% 30.16 in 10.0 mi SE 3.5 mph - N/A   Clear
5:35 PM 57.7 °F - 31.5 °F 37% 30.17 in 10.0 mi SE 3.5 mph - N/A   Clear
5:55 PM 56.3 °F - 31.5 °F 39% 30.17 in 10.0 mi North - - N/A   Clear
6:15 PM 54.7 °F - 32.0 °F 42% 30.17 in 10.0 mi South 3.5 mph - N/A   Clear
6:35 PM 54.0 °F - 31.6 °F 43% 30.17 in 10.0 mi Calm Calm - N/A   Clear
6:55 PM 54.5 °F - 30.6 °F 40% 30.18 in 10.0 mi Calm Calm - N/A   Clear
7:15 PM 53.4 °F - 30.4 °F 41% 30.18 in 10.0 mi SE 4.6 mph - N/A   Clear
7:35 PM 52.3 °F - 30.6 °F 43% 30.18 in 10.0 mi ESE 6.9 mph - N/A   Clear
7:55 PM 50.9 °F - 31.1 °F 47% 30.18 in 10.0 mi ESE 9.2 mph - N/A   Clear
8:15 PM 50.0 °F - 31.5 °F 49% 30.18 in 10.0 mi SE 9.2 mph - N/A   Clear
8:35 PM 49.6 °F - 32.0 °F 51% 30.17 in 10.0 mi ESE 8.1 mph - N/A   Clear
8:55 PM 48.7 °F - 32.0 °F 52% 30.17 in 10.0 mi ESE 8.1 mph - N/A   Clear
9:15 PM 47.8 °F - 32.5 °F 55% 30.17 in 10.0 mi ESE 8.1 mph - N/A   Clear
9:35 PM 49.3 °F - 32.2 °F 52% 30.17 in 10.0 mi SE 9.2 mph - N/A   Clear
9:55 PM 49.3 °F - 32.4 °F 52% 30.17 in 10.0 mi ESE 10.4 mph 16.1 mph N/A   Clear
10:15 PM 49.1 °F - 32.9 °F 54% 30.17 in 10.0 mi SE 10.4 mph 16.1 mph N/A   Clear
10:35 PM 48.2 °F - 33.1 °F 56% 30.17 in 10.0 mi SE 9.2 mph - N/A   Clear
10:55 PM 47.8 °F - 33.3 °F 57% 30.17 in 10.0 mi ESE 9.2 mph - N/A   Clear
11:15 PM 47.1 °F - 33.8 °F 60% 30.17 in 10.0 mi SE 9.2 mph - N/A   Clear
11:35 PM 46.6 °F - 33.8 °F 61% 30.18 in 10.0 mi ESE 10.4 mph - N/A   Clear
11:55 PM 45.7 °F 40.6 °F 34.5 °F 65% 30.18 in 10.0 mi ESE 10.4 mph - N/A   Clear